| time (UTC) | temp C | wind direction | speed KPH | gust KPH | rain 1hr cm | rain 24hr cm | rain mn cm | humidity % | barometer mb |
| 20260506185551 | 26 | 158 | 6.4 | 8.0 | 0.00 | 0.00 | 0.00 | 93 | 1008.4 |
| 20260506185047 | 27 | 174 | 4.8 | 4.8 | 0.00 | 0.00 | 0.00 | 92 | 1008.5 |
| 20260506184545 | 26 | 200 | 1.6 | 3.2 | 0.00 | 0.00 | 0.00 | 93 | 1008.3 |
| 20260506184042 | 26 | 200 | 1.6 | 3.2 | 0.00 | 0.00 | 0.00 | 93 | 1008.5 |
| 20260506183538 | 26 | 176 | 4.8 | 8.0 | 0.00 | 0.00 | 0.00 | 93 | 1008.2 |
| 20260506183034 | 27 | 159 | 1.6 | 3.2 | 0.00 | 0.00 | 0.00 | 92 | 1008.5 |
| 20260506182532 | 27 | 189 | 3.2 | 4.8 | 0.00 | 0.00 | 0.00 | 92 | 1008.5 |
| 20260506182029 | 27 | 181 | 1.6 | 3.2 | 0.00 | 0.00 | 0.00 | 92 | 1008.4 |
| 20260506181527 | 27 | 177 | 3.2 | 3.2 | 0.00 | 0.00 | 0.00 | 92 | 1008.7 |
| 20260506181023 | 27 | 181 | 4.8 | 4.8 | 0.00 | 0.00 | 0.00 | 93 | 1008.7 |
| 20260506180520 | 27 | 178 | 1.6 | 3.2 | 0.00 | 0.00 | 0.00 | 93 | 1008.7 |
| 20260506180017 | 26 | 55 | 1.6 | 1.6 | 0.00 | 0.00 | 0.00 | 94 | 1008.7 |
| 20260506175513 | 26 | 144 | 3.2 | 3.2 | 0.00 | 0.00 | 0.00 | 94 | 1008.7 |
| 20260506175010 | 26 | 155 | 3.2 | 3.2 | 0.00 | 0.00 | 0.00 | 94 | 1008.7 |
| 20260506174508 | 26 | 173 | 1.6 | 1.6 | 0.00 | 0.00 | 0.00 | 95 | 1008.6 |
| 20260506174004 | 26 | 147 | 1.6 | 1.6 | 0.00 | 0.00 | 0.00 | 95 | 1008.7 |
| 20260506173502 | 26 | 187 | 1.6 | 3.2 | 0.00 | 0.00 | 0.00 | 94 | 1008.9 |
| 20260506172958 | 26 | 149 | 4.8 | 4.8 | 0.00 | 0.00 | 0.00 | 94 | 1008.9 |
| 20260506172455 | 26 | 151 | 1.6 | 1.6 | 0.00 | 0.00 | 0.00 | 93 | 1009.0 |
| 20260506171946 | 26 | 191 | 1.6 | 1.6 | 0.00 | 0.00 | 0.00 | 94 | 1008.9 |
| 20260506171444 | 27 | 71 | 1.6 | 1.6 | 0.00 | 0.00 | 0.00 | 93 | 1009.1 |
| 20260506170941 | 27 | 167 | 1.6 | 1.6 | 0.00 | 0.00 | 0.00 | 92 | 1009.0 |
| 20260506170437 | 27 | 203 | 8.0 | 11.3 | 0.00 | 0.00 | 0.00 | 91 | 1009.0 |
| 20260506165931 | 27 | 178 | 6.4 | 9.7 | 0.00 | 0.00 | 0.00 | 91 | 1009.1 |
| 20260506165429 | 27 | 160 | 4.8 | 4.8 | 0.00 | 0.00 | 0.00 | 92 | 1009.2 |
| 20260506164924 | 27 | 202 | 6.4 | 8.0 | 0.00 | 0.00 | 0.00 | 92 | 1009.0 |
| 20260506164421 | 26 | 150 | 1.6 | 1.6 | 0.00 | 0.00 | 0.00 | 93 | 1009.0 |
| 20260506163919 | 26 | 159 | 3.2 | 3.2 | 0.00 | 0.00 | 0.00 | 93 | 1009.1 |
| 20260506163413 | 26 | 162 | 9.7 | 12.9 | 0.00 | 0.00 | 0.00 | 93 | 1009.0 |
| 20260506162908 | 26 | 164 | 3.2 | 3.2 | 0.00 | 0.00 | 0.00 | 94 | 1008.9 |
| 20260506162406 | 26 | 182 | 9.7 | 11.3 | 0.00 | 0.00 | 0.00 | 93 | 1009.1 |
| 20260506161858 | 26 | 169 | 3.2 | 4.8 | 0.00 | 0.00 | 0.00 | 94 | 1008.9 |
| 20260506161355 | 26 | 197 | 3.2 | 4.8 | 0.00 | 0.00 | 0.00 | 95 | 1009.1 |
| 20260506160853 | 26 | 205 | 1.6 | 1.6 | 0.00 | 0.00 | 0.00 | 96 | 1008.8 |
| 20260506160350 | 26 | 196 | 3.2 | 3.2 | 0.00 | 0.00 | 0.00 | 97 | 1009.0 |
| 20260506155848 | 26 | 136 | 1.6 | 3.2 | 0.00 | 0.00 | 0.00 | 97 | 1008.6 |
| 20260506155345 | 26 | 171 | 3.2 | 3.2 | 0.00 | 0.00 | 0.00 | 97 | 1008.7 |
| 20260506153502 | 25 | 143 | 4.8 | 4.8 | 0.00 | 0.00 | 0.00 | 99 | 1008.7 |
| 20260506153000 | 25 | 191 | 3.2 | 4.8 | 0.00 | 0.00 | 0.00 | 99 | 1008.7 |
| 20260506152456 | 25 | 195 | 1.6 | 1.6 | 0.00 | 0.00 | 0.00 | 99 | 1008.3 |
| 20260506151954 | 25 | 153 | 1.6 | 3.2 | 0.00 | 0.00 | 0.00 | 99 | 1008.2 |
| 20260506151452 | 25 | 171 | 3.2 | 3.2 | 0.00 | 0.00 | 0.00 | 99 | 1008.2 |
| 20260506150949 | 25 | 187 | 3.2 | 4.8 | 0.00 | 0.00 | 0.00 | 99 | 1008.1 |
| 20260506150445 | 25 | 168 | 1.6 | 1.6 | 0.00 | 0.00 | 0.00 | 99 | 1008.2 |
| 20260506145942 | 25 | 120 | 1.6 | 1.6 | 0.00 | 0.00 | 0.00 | 99 | 1008.1 |
| 20260506145438 | 25 | 202 | 4.8 | 9.7 | 0.00 | 0.00 | 0.00 | 99 | 1007.9 |
| 20260506144936 | 25 | 138 | 1.6 | 1.6 | 0.00 | 0.00 | 0.00 | 99 | 1007.8 |
| 20260506144432 | 25 | 178 | 1.6 | 3.2 | 0.00 | 0.00 | 0.00 | 99 | 1007.8 |
| 20260506143931 | 25 | 166 | 1.6 | 3.2 | 0.00 | 0.00 | 0.00 | 99 | 1008.0 |
| 20260506143428 | 25 | 150 | 3.2 | 3.2 | 0.00 | 0.00 | 0.00 | 99 | 1007.9 |
| 20260506142926 | 25 | 158 | 1.6 | 1.6 | 0.00 | 0.00 | 0.00 | 99 | 1007.7 |
| 20260506142424 | 25 | 164 | 0.0 | 0.0 | 0.00 | 0.00 | 0.00 | 99 | 1008.0 |
| 20260506141921 | 25 | 174 | 1.6 | 1.6 | 0.00 | 0.00 | 0.00 | 99 | 1008.0 |
| 20260506141419 | 25 | 167 | 1.6 | 3.2 | 0.00 | 0.00 | 0.00 | 99 | 1008.0 |
| 20260506140918 | 25 | 173 | 3.2 | 3.2 | 0.00 | 0.00 | 0.00 | 99 | 1008.1 |
| 20260506140414 | 25 | 97 | 1.6 | 3.2 | 0.00 | 0.00 | 0.00 | 99 | 1008.1 |
| 20260506135911 | 25 | 165 | 1.6 | 1.6 | 0.00 | 0.00 | 0.00 | 99 | 1008.3 |
| 20260506135408 | 25 | 149 | 3.2 | 3.2 | 0.00 | 0.00 | 0.00 | 99 | 1008.1 |
| 20260506134904 | 25 | 181 | 1.6 | 1.6 | 0.00 | 0.00 | 0.00 | 99 | 1008.1 |
| 20260506134400 | 25 | 169 | 1.6 | 3.2 | 0.00 | 0.00 | 0.00 | 99 | 1008.0 |
| 20260506133857 | 25 | 183 | 0.0 | 0.0 | 0.00 | 0.00 | 0.00 | 99 | 1008.1 |
| 20260506133354 | 25 | 177 | 1.6 | 1.6 | 0.00 | 0.00 | 0.00 | 99 | 1008.0 |
| 20260506132850 | 25 | 170 | 1.6 | 1.6 | 0.00 | 0.00 | 0.00 | 99 | 1008.2 |
| 20260506132348 | 25 | 191 | 3.2 | 3.2 | 0.00 | 0.00 | 0.00 | 99 | 1008.1 |
| 20260506131846 | 25 | 173 | 1.6 | 1.6 | 0.00 | 0.00 | 0.00 | 99 | 1008.0 |
| 20260506131342 | 25 | 179 | 0.0 | 0.0 | 0.00 | 0.00 | 0.00 | 99 | 1008.0 |
| 20260506130839 | 25 | 194 | 0.0 | 0.0 | 0.00 | 0.00 | 0.00 | 99 | 1008.2 |
| 20260506130335 | 25 | 205 | 1.6 | 1.6 | 0.00 | 0.00 | 0.00 | 99 | 1008.3 |
| 20260506125833 | 25 | 177 | 0.0 | 1.6 | 0.00 | 0.00 | 0.00 | 99 | 1008.0 |
| 20260506125332 | 25 | 177 | 1.6 | 3.2 | 0.00 | 0.00 | 0.00 | 99 | 1007.9 |
| 20260506124830 | 24 | 142 | 3.2 | 3.2 | 0.00 | 0.00 | 0.00 | 99 | 1008.2 |
| 20260506124326 | 24 | 161 | 0.0 | 1.6 | 0.00 | 0.00 | 0.00 | 99 | 1008.1 |
| 20260506123824 | 24 | 140 | 1.6 | 3.2 | 0.00 | 0.00 | 0.00 | 99 | 1008.1 |
| 20260506123322 | 24 | 171 | 0.0 | 0.0 | 0.00 | 0.00 | 0.00 | 99 | 1007.9 |
| 20260506122819 | 24 | 177 | 1.6 | 1.6 | 0.00 | 0.00 | 0.00 | 99 | 1007.9 |
| 20260506122316 | 24 | 180 | 1.6 | 3.2 | 0.00 | 0.00 | 0.00 | 99 | 1007.9 |
| 20260506121814 | 24 | 174 | 0.0 | 0.0 | 0.00 | 0.00 | 0.00 | 99 | 1008.0 |
| 20260506121311 | 24 | 175 | 0.0 | 1.6 | 0.00 | 0.00 | 0.00 | 99 | 1007.8 |
| 20260506120808 | 24 | 158 | 3.2 | 3.2 | 0.00 | 0.00 | 0.00 | 99 | 1007.8 |
| 20260506120306 | 24 | 145 | 1.6 | 1.6 | 0.00 | 0.00 | 0.00 | 99 | 1007.6 |
| 20260506115803 | 24 | 165 | 3.2 | 3.2 | 0.00 | 0.00 | 0.00 | 99 | 1007.4 |
| 20260506115306 | 24 | 169 | 0.0 | 0.0 | 0.00 | 0.00 | 0.00 | 99 | 1007.4 |
| 20260506114759 | 24 | 84 | 1.6 | 3.2 | 0.00 | 0.00 | 0.00 | 99 | 1007.4 |
| 20260506114256 | 24 | 126 | 1.6 | 1.6 | 0.00 | 0.00 | 0.00 | 99 | 1007.4 |
| 20260506113755 | 24 | 183 | 0.0 | 1.6 | 0.00 | 0.00 | 0.00 | 99 | 1007.2 |
| 20260506113252 | 24 | 158 | 1.6 | 1.6 | 0.00 | 0.00 | 0.00 | 99 | 1007.1 |
| 20260506112748 | 24 | 171 | 1.6 | 1.6 | 0.00 | 0.00 | 0.00 | 99 | 1007.2 |
| 20260506112246 | 24 | 157 | 1.6 | 3.2 | 0.00 | 0.00 | 0.00 | 99 | 1007.1 |
| 20260506111743 | 24 | 144 | 0.0 | 0.0 | 0.00 | 0.00 | 0.00 | 99 | 1007.1 |
| 20260506111241 | 24 | 114 | 3.2 | 3.2 | 0.00 | 0.00 | 0.00 | 99 | 1007.1 |
| 20260506110737 | 24 | 143 | 1.6 | 1.6 | 0.00 | 0.00 | 0.00 | 99 | 1007.1 |
| 20260506110235 | 24 | 156 | 0.0 | 0.0 | 0.00 | 0.00 | 0.00 | 99 | 1007.2 |
| 20260506105732 | 24 | 192 | 0.0 | 0.0 | 0.00 | 0.00 | 0.00 | 99 | 1007.2 |
| 20260506105229 | 24 | 171 | 0.0 | 0.0 | 0.00 | 0.00 | 0.00 | 99 | 1007.0 |
| 20260506104727 | 24 | 167 | 0.0 | 1.6 | 0.00 | 0.00 | 0.00 | 99 | 1007.1 |
| 20260506104224 | 24 | 149 | 1.6 | 3.2 | 0.00 | 0.00 | 0.00 | 99 | 1007.1 |
| 20260506103721 | 24 | 146 | 0.0 | 1.6 | 0.00 | 0.00 | 0.00 | 99 | 1007.1 |
| 20260506103218 | 24 | 149 | 0.0 | 0.0 | 0.00 | 0.00 | 0.00 | 99 | 1007.2 |
| 20260506102716 | 24 | 167 | 1.6 | 1.6 | 0.00 | 0.00 | 0.00 | 99 | 1007.0 |
| 20260506102214 | 24 | 173 | 0.0 | 0.0 | 0.00 | 0.00 | 0.00 | 99 | 1006.9 |
| 20260506101710 | 24 | 193 | 1.6 | 3.2 | 0.00 | 0.00 | 0.00 | 99 | 1007.0 |
| 20260506101207 | 23 | 154 | 0.0 | 0.0 | 0.00 | 0.00 | 0.00 | 99 | 1006.7 |
| 20260506100705 | 23 | 183 | 3.2 | 3.2 | 0.00 | 0.00 | 0.00 | 99 | 1006.8 |
| 20260506100203 | 23 | 143 | 0.0 | 0.0 | 0.00 | 0.00 | 0.00 | 99 | 1006.8 |
| 20260506095701 | 23 | 145 | 1.6 | 3.2 | 0.00 | 0.00 | 0.00 | 99 | 1006.4 |
| 20260506095158 | 23 | 154 | 0.0 | 1.6 | 0.00 | 0.00 | 0.00 | 99 | 1006.8 |
| 20260506094655 | 24 | 171 | 1.6 | 1.6 | 0.00 | 0.00 | 0.00 | 99 | 1006.8 |
| 20260506094153 | 24 | 164 | 0.0 | 0.0 | 0.00 | 0.00 | 0.00 | 99 | 1006.8 |
| 20260506093651 | 24 | 144 | 0.0 | 1.6 | 0.00 | 0.00 | 0.00 | 99 | 1006.6 |
| 20260506093148 | 24 | 166 | 1.6 | 1.6 | 0.00 | 0.00 | 0.00 | 99 | 1006.7 |
| 20260506092646 | 24 | 173 | 0.0 | 0.0 | 0.00 | 0.00 | 0.00 | 99 | 1006.7 |
| 20260506092143 | 24 | 157 | 0.0 | 0.0 | 0.00 | 0.00 | 0.00 | 99 | 1006.6 |
| 20260506091640 | 24 | 167 | 4.8 | 4.8 | 0.00 | 0.00 | 0.00 | 99 | 1006.7 |
| 20260506091137 | 24 | 182 | 1.6 | 1.6 | 0.00 | 0.00 | 0.00 | 99 | 1006.8 |
| 20260506090636 | 24 | 170 | 1.6 | 1.6 | 0.00 | 0.00 | 0.00 | 99 | 1006.7 |
| 20260506090132 | 24 | 137 | 1.6 | 1.6 | 0.00 | 0.00 | 0.00 | 99 | 1007.0 |
| 20260506085629 | 24 | 145 | 0.0 | 0.0 | 0.00 | 0.00 | 0.00 | 99 | 1006.9 |
| 20260506085125 | 24 | 175 | 0.0 | 0.0 | 0.00 | 0.00 | 0.00 | 99 | 1006.8 |
| 20260506084622 | 24 | 182 | 0.0 | 1.6 | 0.00 | 0.00 | 0.00 | 99 | 1006.9 |
| 20260506084118 | 24 | 174 | 1.6 | 1.6 | 0.00 | 0.00 | 0.00 | 99 | 1007.0 |
| 20260506083616 | 24 | 172 | 1.6 | 3.2 | 0.00 | 0.00 | 0.00 | 99 | 1007.1 |
| 20260506083113 | 24 | 141 | 3.2 | 3.2 | 0.00 | 0.00 | 0.00 | 99 | 1007.2 |
| 20260506082610 | 24 | 160 | 1.6 | 1.6 | 0.00 | 0.00 | 0.00 | 99 | 1007.1 |
| 20260506082105 | 24 | 200 | 0.0 | 0.0 | 0.00 | 0.00 | 0.00 | 99 | 1007.3 |
| 20260506081603 | 24 | 182 | 1.6 | 1.6 | 0.00 | 0.00 | 0.00 | 99 | 1007.3 |
| 20260506081101 | 24 | 182 | 0.0 | 1.6 | 0.00 | 0.00 | 0.00 | 99 | 1007.3 |
| 20260506080559 | 24 | 174 | 0.0 | 1.6 | 0.00 | 0.00 | 0.00 | 99 | 1007.4 |
| 20260506073038 | 24 | 189 | 0.0 | 1.6 | 0.00 | 0.00 | 0.00 | 99 | 1007.6 |
| 20260506072536 | 24 | 166 | 1.6 | 1.6 | 0.00 | 0.00 | 0.00 | 99 | 1007.9 |
| 20260506072034 | 24 | 187 | 1.6 | 1.6 | 0.00 | 0.00 | 0.00 | 99 | 1007.8 |
| 20260506071531 | 24 | 196 | 1.6 | 1.6 | 0.00 | 0.00 | 0.00 | 99 | 1007.7 |
| 20260506071028 | 24 | 177 | 1.6 | 3.2 | 0.00 | 0.00 | 0.00 | 99 | 1007.8 |
| 20260506070525 | 24 | 148 | 1.6 | 3.2 | 0.00 | 0.00 | 0.00 | 99 | 1008.0 |
| 20260506062503 | 24 | 159 | 3.2 | 3.2 | 0.00 | 0.00 | 0.00 | 99 | 1007.8 |
| 20260506061959 | 24 | 181 | 3.2 | 3.2 | 0.00 | 0.00 | 0.00 | 99 | 1007.8 |
| 20260506061455 | 24 | 187 | 1.6 | 3.2 | 0.00 | 0.00 | 0.00 | 99 | 1007.8 |
| 20260506060953 | 24 | 186 | 1.6 | 1.6 | 0.00 | 0.00 | 0.00 | 99 | 1007.9 |
| 20260506060451 | 24 | 177 | 3.2 | 4.8 | 0.00 | 0.00 | 0.00 | 99 | 1007.9 |
| 20260506050920 | 24 | 182 | 1.6 | 3.2 | 0.00 | 0.00 | 0.00 | 98 | 1007.7 |
| 20260506050418 | 24 | 193 | 3.2 | 4.8 | 0.00 | 0.00 | 0.00 | 98 | 1007.6 |
| 20260506044908 | 24 | 174 | 4.8 | 4.8 | 0.00 | 0.00 | 0.00 | 98 | 1007.8 |
| 20260506044406 | 24 | 172 | 3.2 | 3.2 | 0.00 | 0.00 | 0.00 | 98 | 1007.9 |
| 20260506043903 | 24 | 185 | 4.8 | 4.8 | 0.00 | 0.00 | 0.00 | 98 | 1007.7 |
| 20260506043400 | 24 | 163 | 4.8 | 8.0 | 0.00 | 0.00 | 0.00 | 98 | 1007.8 |
| 20260506042858 | 24 | 177 | 4.8 | 9.7 | 0.00 | 0.00 | 0.00 | 98 | 1007.8 |
| 20260506042357 | 24 | 182 | 3.2 | 4.8 | 0.00 | 0.00 | 0.00 | 98 | 1007.7 |
| 20260506041855 | 24 | 164 | 3.2 | 3.2 | 0.00 | 0.00 | 0.00 | 98 | 1007.7 |
| 20260506041354 | 24 | 171 | 3.2 | 4.8 | 0.00 | 0.00 | 0.00 | 98 | 1007.6 |
| 20260506040849 | 24 | 175 | 1.6 | 1.6 | 0.00 | 0.00 | 0.00 | 98 | 1007.7 |
| 20260506040347 | 24 | 174 | 1.6 | 1.6 | 0.00 | 0.00 | 0.00 | 98 | 1007.8 |
| 20260506035843 | 24 | 160 | 4.8 | 8.0 | 0.00 | 0.00 | 0.00 | 98 | 1007.7 |
| 20260506035340 | 24 | 183 | 3.2 | 3.2 | 0.00 | 0.00 | 0.00 | 98 | 1007.9 |
| 20260506034837 | 24 | 186 | 1.6 | 3.2 | 0.00 | 0.00 | 0.00 | 98 | 1007.9 |
| 20260506034334 | 24 | 178 | 1.6 | 1.6 | 0.00 | 0.00 | 0.00 | 98 | 1007.7 |
| 20260506033831 | 24 | 185 | 3.2 | 4.8 | 0.00 | 0.00 | 0.00 | 98 | 1007.7 |
| 20260506033328 | 24 | 157 | 4.8 | 4.8 | 0.00 | 0.00 | 0.00 | 98 | 1007.8 |
| 20260506032825 | 24 | 139 | 4.8 | 8.0 | 0.00 | 0.00 | 0.00 | 98 | 1007.6 |
| 20260506032322 | 24 | 192 | 1.6 | 3.2 | 0.00 | 0.00 | 0.00 | 98 | 1007.7 |
| 20260506031819 | 24 | 171 | 4.8 | 4.8 | 0.00 | 0.00 | 0.00 | 98 | 1007.6 |
| 20260506031316 | 25 | 162 | 4.8 | 4.8 | 0.00 | 0.00 | 0.00 | 97 | 1007.6 |
| 20260506030814 | 25 | 162 | 8.0 | 9.7 | 0.00 | 0.00 | 0.00 | 98 | 1007.5 |
| 20260506030312 | 25 | 191 | 1.6 | 1.6 | 0.00 | 0.00 | 0.00 | 97 | 1007.5 |
| 20260506025808 | 25 | 185 | 3.2 | 3.2 | 0.00 | 0.00 | 0.00 | 97 | 1007.4 |
| 20260506025306 | 25 | 195 | 6.4 | 9.7 | 0.00 | 0.00 | 0.00 | 98 | 1007.5 |
| 20260506024802 | 24 | 179 | 4.8 | 8.0 | 0.00 | 0.00 | 0.00 | 97 | 1007.3 |
| 20260506024258 | 24 | 103 | 4.8 | 4.8 | 0.00 | 0.00 | 0.00 | 98 | 1007.4 |
| 20260506023754 | 24 | 189 | 3.2 | 3.2 | 0.00 | 0.00 | 0.00 | 97 | 1007.1 |
| 20260506023252 | 24 | 109 | 8.0 | 11.3 | 0.00 | 0.00 | 0.00 | 97 | 1007.0 |
| 20260506022748 | 25 | 157 | 3.2 | 4.8 | 0.00 | 0.00 | 0.00 | 97 | 1006.9 |
| 20260506022246 | 25 | 180 | 3.2 | 3.2 | 0.00 | 0.00 | 0.00 | 97 | 1006.9 |
| 20260506021744 | 25 | 170 | 4.8 | 4.8 | 0.00 | 0.00 | 0.00 | 97 | 1006.8 |
| 20260506021241 | 24 | 158 | 3.2 | 4.8 | 0.00 | 0.00 | 0.00 | 97 | 1006.7 |
| 20260506020737 | 24 | 180 | 9.7 | 11.3 | 0.00 | 0.00 | 0.00 | 98 | 1006.8 |
| 20260506020235 | 24 | 120 | 1.6 | 3.2 | 0.00 | 0.00 | 0.00 | 98 | 1006.7 |
| 20260506015733 | 24 | 184 | 4.8 | 4.8 | 0.00 | 0.00 | 0.00 | 98 | 1006.6 |
| 20260506015230 | 24 | 168 | 1.6 | 3.2 | 0.00 | 0.00 | 0.00 | 98 | 1006.6 |
| 20260506014727 | 24 | 166 | 0.0 | 1.6 | 0.00 | 0.00 | 0.00 | 98 | 1006.5 |
| 20260506014223 | 24 | 107 | 4.8 | 4.8 | 0.00 | 0.00 | 0.00 | 98 | 1006.4 |
| 20260506013721 | 24 | 163 | 4.8 | 4.8 | 0.00 | 0.00 | 0.00 | 97 | 1006.3 |
| 20260506013218 | 24 | 177 | 3.2 | 3.2 | 0.00 | 0.00 | 0.00 | 97 | 1006.5 |
| 20260506012714 | 24 | 188 | 6.4 | 11.3 | 0.00 | 0.00 | 0.00 | 97 | 1006.4 |
| 20260506012211 | 24 | 178 | 1.6 | 1.6 | 0.00 | 0.00 | 0.00 | 97 | 1006.0 |
| 20260506011708 | 24 | 185 | 3.2 | 3.2 | 0.00 | 0.00 | 0.00 | 97 | 1006.0 |
| 20260506011204 | 24 | 172 | 1.6 | 1.6 | 0.00 | 0.00 | 0.00 | 97 | 1005.9 |
| 20260506010703 | 25 | 148 | 3.2 | 4.8 | 0.00 | 0.00 | 0.00 | 97 | 1005.8 |
| 20260506010200 | 25 | 175 | 1.6 | 3.2 | 0.00 | 0.00 | 0.00 | 96 | 1006.0 |
| 20260506005657 | 25 | 160 | 6.4 | 11.3 | 0.00 | 0.00 | 0.00 | 96 | 1005.9 |
| 20260506005153 | 25 | 145 | 4.8 | 4.8 | 0.00 | 0.00 | 0.00 | 96 | 1005.9 |
| 20260506004649 | 25 | 172 | 9.7 | 12.9 | 0.00 | 0.00 | 0.00 | 96 | 1005.7 |
| 20260506004147 | 25 | 185 | 4.8 | 4.8 | 0.00 | 0.00 | 0.00 | 95 | 1005.8 |
| 20260506003643 | 25 | 225 | 3.2 | 3.2 | 0.00 | 0.00 | 0.00 | 95 | 1005.7 |
| 20260506003139 | 25 | 146 | 3.2 | 3.2 | 0.00 | 0.00 | 0.00 | 95 | 1005.8 |
| 20260506002635 | 25 | 164 | 4.8 | 4.8 | 0.00 | 0.00 | 0.00 | 94 | 1005.9 |
| 20260506002132 | 25 | 173 | 3.2 | 4.8 | 0.00 | 0.00 | 0.00 | 94 | 1005.8 |
| 20260506001627 | 25 | 168 | 4.8 | 8.0 | 0.00 | 0.00 | 0.00 | 94 | 1005.7 |
| 20260506001125 | 25 | 155 | 8.0 | 11.3 | 0.00 | 0.00 | 0.00 | 94 | 1005.9 |
| 20260506000622 | 25 | 192 | 4.8 | 8.0 | 0.00 | 0.00 | 0.00 | 94 | 1005.8 |
| 20260506000119 | 25 | 167 | 4.8 | 4.8 | 0.00 | 0.00 | 0.00 | 94 | 1005.6 |
| 20260505235618 | 25 | 199 | 4.8 | 4.8 | 0.00 | 0.00 | 0.00 | 94 | 1005.8 |
| 20260505235114 | 25 | 160 | 8.0 | 9.7 | 0.00 | 0.00 | 0.00 | 94 | 1005.8 |
| 20260505234611 | 25 | 183 | 4.8 | 4.8 | 0.00 | 0.00 | 0.00 | 94 | 1005.8 |
| 20260505234108 | 25 | 124 | 9.7 | 11.3 | 0.00 | 0.00 | 0.00 | 94 | 1005.8 |
| 20260505233606 | 25 | 176 | 3.2 | 3.2 | 0.00 | 0.00 | 0.00 | 93 | 1005.9 |
| 20260505233103 | 25 | 154 | 8.0 | 12.9 | 0.00 | 0.00 | 0.00 | 93 | 1005.9 |
| 20260505232601 | 25 | 190 | 3.2 | 4.8 | 0.00 | 0.00 | 0.00 | 93 | 1006.0 |
| 20260505232058 | 25 | 179 | 3.2 | 3.2 | 0.00 | 0.00 | 0.00 | 93 | 1005.8 |
| 20260505231554 | 25 | 180 | 4.8 | 8.0 | 0.00 | 0.00 | 0.00 | 93 | 1005.9 |
| 20260505231053 | 26 | 192 | 1.6 | 3.2 | 0.00 | 0.00 | 0.00 | 93 | 1005.9 |
| 20260505230550 | 26 | 200 | 4.8 | 4.8 | 0.00 | 0.00 | 0.00 | 92 | 1006.0 |
| 20260505230046 | 26 | 210 | 0.0 | 0.0 | 0.00 | 0.00 | 0.00 | 92 | 1005.8 |
| 20260505225544 | 26 | 114 | 11.3 | 12.9 | 0.00 | 0.00 | 0.00 | 91 | 1006.1 |
| 20260505225039 | 26 | 166 | 6.4 | 8.0 | 0.00 | 0.00 | 0.00 | 91 | 1006.0 |
| 20260505224537 | 26 | 191 | 4.8 | 4.8 | 0.00 | 0.00 | 0.00 | 90 | 1006.0 |
| 20260505224034 | 27 | 135 | 4.8 | 4.8 | 0.00 | 0.00 | 0.00 | 88 | 1006.0 |
| 20260505223531 | 27 | 224 | 4.8 | 4.8 | 0.00 | 0.00 | 0.00 | 87 | 1005.9 |
| 20260505223027 | 27 | 191 | 8.0 | 11.3 | 0.00 | 0.00 | 0.00 | 89 | 1006.0 |
| 20260505222523 | 27 | 193 | 8.0 | 9.7 | 0.00 | 0.00 | 0.00 | 88 | 1006.1 |
| 20260505222019 | 26 | 222 | 4.8 | 4.8 | 0.00 | 0.00 | 0.00 | 89 | 1006.1 |
| 20260505221517 | 26 | 195 | 9.7 | 12.9 | 0.00 | 0.00 | 0.00 | 89 | 1006.1 |
| 20260505221014 | 26 | 183 | 4.8 | 4.8 | 0.00 | 0.00 | 0.00 | 90 | 1005.9 |
| 20260505220511 | 26 | 211 | 4.8 | 4.8 | 0.00 | 0.00 | 0.00 | 90 | 1006.3 |
| 20260505220009 | 26 | 186 | 4.8 | 8.0 | 0.00 | 0.00 | 0.00 | 89 | 1006.3 |
| 20260505215506 | 26 | 217 | 4.8 | 8.0 | 0.00 | 0.00 | 0.00 | 89 | 1006.3 |
| 20260505215004 | 26 | 178 | 4.8 | 8.0 | 0.00 | 0.00 | 0.00 | 90 | 1006.3 |
| 20260505214502 | 26 | 162 | 4.8 | 8.0 | 0.00 | 0.00 | 0.00 | 89 | 1006.4 |
| 20260505213958 | 26 | 130 | 3.2 | 4.8 | 0.00 | 0.00 | 0.00 | 90 | 1006.3 |
| 20260505213456 | 26 | 177 | 3.2 | 3.2 | 0.00 | 0.00 | 0.00 | 91 | 1006.4 |
| 20260505212952 | 26 | 134 | 6.4 | 9.7 | 0.00 | 0.00 | 0.00 | 91 | 1006.4 |
| 20260505212449 | 26 | 184 | 1.6 | 3.2 | 0.00 | 0.00 | 0.00 | 91 | 1006.6 |
| 20260505211945 | 26 | 195 | 3.2 | 3.2 | 0.00 | 0.00 | 0.00 | 90 | 1006.6 |
| 20260505211443 | 26 | 230 | 3.2 | 3.2 | 0.00 | 0.00 | 0.00 | 90 | 1006.4 |
| 20260505210939 | 26 | 210 | 4.8 | 8.0 | 0.00 | 0.00 | 0.00 | 90 | 1006.3 |
| 20260505210436 | 26 | 263 | 3.2 | 3.2 | 0.00 | 0.00 | 0.00 | 90 | 1006.8 |
| 20260505205933 | 26 | 168 | 6.4 | 11.3 | 0.00 | 0.00 | 0.00 | 91 | 1006.8 |
| 20260505205432 | 26 | 209 | 4.8 | 4.8 | 0.00 | 0.00 | 0.00 | 91 | 1007.1 |
| 20260505204928 | 26 | 204 | 9.7 | 11.3 | 0.00 | 0.00 | 0.00 | 90 | 1007.0 |
| 20260505204426 | 26 | 187 | 4.8 | 4.8 | 0.00 | 0.00 | 0.00 | 91 | 1007.2 |
| 20260505203923 | 26 | 170 | 4.8 | 4.8 | 0.00 | 0.00 | 0.00 | 91 | 1007.3 |
| 20260505203419 | 26 | 227 | 1.6 | 1.6 | 0.00 | 0.00 | 0.00 | 91 | 1007.2 |
| 20260505202916 | 26 | 175 | 11.3 | 16.1 | 0.00 | 0.00 | 0.00 | 90 | 1007.4 |
| 20260505202412 | 26 | 226 | 8.0 | 11.3 | 0.00 | 0.00 | 0.00 | 90 | 1007.4 |
| 20260505201909 | 26 | 197 | 6.4 | 11.3 | 0.00 | 0.00 | 0.00 | 90 | 1007.4 |
| 20260505201406 | 26 | 181 | 8.0 | 11.3 | 0.00 | 0.00 | 0.00 | 89 | 1007.5 |
| 20260505200904 | 26 | 197 | 6.4 | 11.3 | 0.00 | 0.00 | 0.00 | 89 | 1007.5 |
| 20260505200401 | 26 | 205 | 6.4 | 11.3 | 0.00 | 0.00 | 0.00 | 90 | 1007.5 |
| 20260505195856 | 26 | 179 | 4.8 | 8.0 | 0.00 | 0.00 | 0.00 | 90 | 1007.5 |
| 20260505195354 | 26 | 204 | 3.2 | 4.8 | 0.00 | 0.00 | 0.00 | 90 | 1007.6 |
| 20260505194851 | 26 | 225 | 8.0 | 11.3 | 0.00 | 0.00 | 0.00 | 89 | 1007.7 |
| 20260505194348 | 26 | 214 | 4.8 | 8.0 | 0.00 | 0.00 | 0.00 | 90 | 1007.6 |
| 20260505193843 | 26 | 188 | 8.0 | 11.3 | 0.00 | 0.00 | 0.00 | 90 | 1007.6 |
| 20260505193341 | 26 | 172 | 4.8 | 4.8 | 0.00 | 0.00 | 0.00 | 90 | 1007.5 |
| 20260505192838 | 26 | 192 | 3.2 | 3.2 | 0.00 | 0.00 | 0.00 | 90 | 1007.7 |
| 20260505192337 | 26 | 185 | 4.8 | 8.0 | 0.00 | 0.00 | 0.00 | 90 | 1007.6 |
| 20260505191834 | 26 | 220 | 3.2 | 3.2 | 0.00 | 0.00 | 0.00 | 90 | 1007.6 |
| 20260505191332 | 26 | 176 | 3.2 | 3.2 | 0.00 | 0.00 | 0.00 | 90 | 1007.7 |
| 20260505190829 | 26 | 181 | 3.2 | 4.8 | 0.00 | 0.00 | 0.00 | 90 | 1007.8 |
| 20260505190324 | 26 | 169 | 4.8 | 8.0 | 0.00 | 0.00 | 0.00 | 90 | 1007.6 |
| 20260505185820 | 26 | 205 | 3.2 | 4.8 | 0.00 | 0.00 | 0.00 | 89 | 1007.7 |